This is the latest recevied weather packets stored in our database for station/object W4MLN-3. If no packets are shown the sender has not sent any weather packets the latest 1 day(s).
| Time | Temp. | Humidity | Pressure | Rain* | Wind** | Luminosity | Snow |
|---|---|---|---|---|---|---|---|
| 1777997703 | 21.67° C | 38% | 1016 hPa | 0 mm | 1.34 m/s, 193° | - | - |
| 1777997403 | 21.11° C | 35% | 1015.9 hPa | 0 mm | 0.89 m/s, 287° | - | - |
| 1777997145 | 21.11° C | 34% | 1015.9 hPa | 0 mm | 1.34 m/s, 293° | - | - |
| 1777996803 | 21.11° C | 35% | 1016.1 hPa | 0 mm | 1.34 m/s, 288° | - | - |
| 1777996503 | 21.11° C | 35% | 1016.1 hPa | 0 mm | 1.34 m/s, 262° | - | - |
| 1777996203 | 21.11° C | 35% | 1016.1 hPa | 0 mm | 1.34 m/s, 268° | - | - |
| 1777995903 | 21.11° C | 33% | 1016.1 hPa | 0 mm | 1.34 m/s, 270° | - | - |
| 1777995603 | 21.11° C | 32% | 1016.2 hPa | 0 mm | 1.34 m/s, 15° | - | - |
| 1777995303 | 21.11° C | 37% | 1016.1 hPa | 0 mm | 1.34 m/s, 310° | - | - |
| 1777995003 | 21.11° C | 32% | 1016.2 hPa | 0 mm | 0.89 m/s, 223° | - | - |
| 1777994703 | 21.11° C | 33% | 1016.1 hPa | 0 mm | 1.34 m/s, 251° | - | - |
| 1777994403 | 21.11° C | 31% | 1016.2 hPa | 0 mm | 1.34 m/s, 258° | - | - |
| 1777994103 | 20.56° C | 34% | 1016.2 hPa | 0 mm | 1.34 m/s, 188° | - | - |
| 1777993824 | 20.56° C | 31% | 1016.2 hPa | 0 mm | 1.34 m/s, 251° | - | - |
| 1777993503 | 20° C | 39% | 1016.1 hPa | 0 mm | 1.79 m/s, 264° | - | - |
| 1777993224 | 20° C | 33% | 1016.1 hPa | 0 mm | 1.79 m/s, 207° | - | - |
| 1777992924 | 19.44° C | 34% | 1016.1 hPa | 0 mm | 1.79 m/s, 173° | - | - |
| 1777992603 | 19.44° C | 37% | 1016.1 hPa | 0 mm | 1.79 m/s, 202° | - | - |
| 1777992324 | 19.44° C | 35% | 1016.3 hPa | 0 mm | 1.34 m/s, 252° | - | - |
| 1777992003 | 19.44° C | 38% | 1016.2 hPa | 0 mm | 1.34 m/s, 239° | - | - |
| 1777991703 | 19.44° C | 37% | 1016.2 hPa | 0 mm | 1.34 m/s, 202° | - | - |
| 1777991403 | 19.44° C | 40% | 1016.1 hPa | 0 mm | 0.89 m/s, 245° | - | - |
| 1777991103 | 18.89° C | 40% | 1016.1 hPa | 0 mm | 1.34 m/s, 194° | - | - |
| 1777990824 | 18.89° C | 42% | 1016 hPa | 0 mm | 1.34 m/s, 196° | - | - |
| 1777990503 | 18.33° C | 44% | 1016 hPa | 0 mm | 1.34 m/s, 194° | - | - |
* Rain latest hour (hover to see other rain measurements)
** Current wind speed in m/s (hover to see current wind gust speed)